EHI
0 0 0 1 0 1 1 1 0 0 0 0 0 0 0 0 0 0 0 0 1 2 3 4 5 3 2 2 2 2 2 3 3 3 3 3 2 2 2 1 2 2 1
0 1 2 2 1 0 0 0 0 0 0 0 0 0 0 0 0 0 0 0 0 1 1 2 3 3 4 5 5 5 4 3 2 2 2 2 1 1 1 0 1 1 0
1 2 3 3 2 0 0 0 0 0 0 0 0 0 0 0 0 0 0 0 1 2 1 1 3 4 6 8 7 6 4 2 1 1 1 1 0 0 0 0 0 0 0
3 3 4 3 2 0 0 0 0 0 0 0 0 0 0 0 0 0 0 0 1 2 2 2 4 5 7 7 6 4 3 1 0 0 0 0 0 0 0 0 0 0 0
3 3 4 3 2 1 1 1 1 0 0 1 0 0 0 0 0 0 0 0 1 1 1 2 3 5 6 6 4 3 2 1 0 0 0 0 0 0 0 0 0 0 0
3 4 4 4 3 3 2 2 2 1 1 1 0 0 0 0 0 0 0 0 0 1 1 1 2 3 3 4 4 4 2 1 0 0 0 0 0 0 0 0 0 0 0
4 4 4 3 3 4 4 4 4 3 2 2 1 0 0 0 0 0 0 0 1 2 2 2 2 1 1 2 3 4 3 2 1 1 0 0 0 0 0 0 0 0 0
4 4 3 3 4 4 4 4 5 5 5 4 3 1 1 0 0 0 0 0 1 2 2 3 2 1 0 1 2 3 4 3 2 2 1 0 0 0 0 0 0 0 0
5 4 3 3 3 4 4 4 5 6 6 5 4 3 2 1 1 0 0 0 0 1 1 1 2 1 0 0 1 1 2 3 3 4 4 2 1 0 0 0 0 0 0
5 4 4 4 3 3 3 4 6 8 8 6 4 3 3 3 2 1 0 0 0 0 0 0 1 1 0 0 0 0 1 1 2 3 4 4 2 1 1 1 0 0 0
3 3 4 5 5 4 4 6 8 8 7 6 5 4 3 3 2 1 0 0 0 0 0 0 0 0 0 0 0 0 0 0 1 1 2 3 2 2 2 2 1 0 0
1 1 3 6 6 5 5 7 7 6 6 6 5 4 3 3 3 1 0 0 0 0 0 0 0 0 0 0 0 0 0 0 0 0 0 1 1 1 2 2 2 1 1
1 2 4 5 6 5 5 5 5 4 4 4 4 3 3 3 3 2 1 0 0 0 0 0 0 0 0 0 0 0 0 0 0 0 0 0 0 0 1 1 2 2 1
3 4 4 4 4 4 4 3 3 3 3 2 2 2 2 2 3 3 2 1 0 0 0 0 0 0 0 0 0 0 0 0 0 0 0 0 0 0 0 0 1 1 0
4 4 4 3 3 3 3 3 3 3 3 2 1 1 1 1 1 2 2 1 0 0 0 0 0 0 0 0 0 0 0 0 0 0 0 0 0 0 0 0 0 0 0
3 3 3 3 3 3 3 3 3 4 4 4 3 2 1 0 0 1 1 0 0 0 0 0 0 0 0 0 0 0 0 0 0 0 0 0 0 0 0 0 0 0 0
3 3 3 3 3 3 3 3 3 3 4 5 5 4 2 1 0 0 0 0 0 1 0 0 0 0 0 0 0 0 0 0 0 0 0 0 0 0 0 0 0 0 0
3 3 3 3 3 3 3 3 3 3 3 4 4 4 3 2 1 1 1 1 0 0 0 0 0 0 0 0 0 0 0 0 0 0 0 0 0 0 0 0 0 0 0
3 3 3 3 3 3 3 3 3 3 3 3 3 3 3 3 2 2 2 2 1 1 0 0 0 0 0 0 0 0 0 0 0 0 0 0 0 0 0 0 0 0 0
3 3 3 3 3 3 3 3 3 3 3 3 3 3 3 3 3 3 3 3 3 2 1 0 0 0 0 0 0 0 0 0 0 0 0 0 0 0 0 0 0 0 0
3 3 3 3 3 3 3 3 3 3 3 3 3 3 3 3 3 3 3 3 3 3 3 1 1 1 1 1 0 0 0 0 0 0 0 0 0 0 0 0 0 0 0
4 4 4 4 4 3 3 3 3 3 3 3 3 3 3 3 3 3 3 3 3 4 4 3 3 2 2 2 1 0 0 0 0 0 0 0 0 0 0 0 0 0 0
6 5 5 5 5 4 3 1 1 2 3 3 4 4 4 4 4 4 4 3 3 3 4 4 4 3 3 3 2 1 0 0 0 0 0 0 0 0 0 0 0 0 0
6 6 5 5 5 5 3 1 0 2 3 4 5 6 6 6 6 6 5 4 4 4 4 4 3 3 3 3 3 2 1 0 0 0 0 0 0 0 0 0 0 0 0
7 7 7 5 5 5 3 1 0 2 3 4 6 6 6 6 6 5 5 6 6 5 5 4 3 3 3 3 3 2 1 1 0 0 0 0 0 0 0 0 0 0 0
6 9 9 7 6 5 4 1 0 1 3 4 6 6 6 6 5 3 4 6 6 7 6 4 3 3 3 3 2 2 2 2 1 0 0 0 0 0 0 0 0 0 0
Wind_Speed
2 1 1 1 1 1 1 1 1 1 1 1 2 3 3 3 3 3 2 4 5 6 6 6 6 6 7 7 7 8 8 8 8 8 8 8 8 8 8 8 7 7 7
2 2 2 1 1 1 1 1 1 1 1 1 2 2 3 3 3 3 3 3 6 6 6 6 6 7 7 7 7 7 7 7 7 7 8 8 8 8 8 8 8 7 7
3 2 2 1 2 1 1 1 1 1 1 1 2 2 2 3 3 3 3 3 3 6 7 8 7 7 7 8 7 7 7 7 7 7 7 7 7 7 7 8 8 8 7
3 2 2 2 2 1 1 1 1 1 1 1 2 2 2 2 3 3 3 3 3 3 4 7 7 7 7 8 8 7 6 7 7 7 7 7 7 7 7 7 8 8 7
3 3 2 2 2 1 1 1 1 1 1 1 1 1 1 2 3 3 4 4 3 3 3 4 6 6 7 7 7 7 7 7 7 8 8 7 7 7 7 7 7 7 8
3 3 2 2 2 1 1 1 1 1 1 1 1 1 1 2 2 3 4 3 3 4 4 4 3 4 6 6 6 7 7 7 7 7 8 7 7 7 7 7 6 6 7
3 3 2 2 2 2 2 2 1 1 1 1 1 1 1 1 2 2 2 2 3 3 3 3 3 3 3 5 5 6 7 7 7 7 7 7 6 7 6 6 6 7 7
2 3 3 2 2 2 2 2 2 1 1 1 1 1 1 2 1 1 1 2 2 2 3 4 4 4 3 2 3 6 6 6 7 7 7 7 7 7 7 7 7 8 8
2 2 3 3 2 2 2 2 3 3 2 1 1 2 2 2 2 2 1 1 1 1 2 2 3 4 4 3 3 5 6 6 6 6 6 6 6 6 7 7 7 8 8
1 2 2 3 2 2 2 3 3 2 3 2 1 1 2 2 1 2 2 1 1 2 2 2 2 3 3 3 4 6 7 6 6 6 6 6 6 6 6 7 7 8 8
1 1 2 2 2 2 3 2 2 2 2 2 2 1 1 1 1 2 2 2 1 2 2 3 2 2 3 3 3 5 6 6 6 6 6 6 6 6 5 6 7 8 8
1 1 1 1 2 2 2 2 2 2 2 2 2 2 2 2 2 2 3 2 2 2 2 2 2 2 2 3 4 6 6 6 6 6 6 6 6 6 6 6 6 6 6
0 1 1 1 1 1 2 2 2 2 2 2 3 2 3 3 2 3 2 2 2 2 1 2 2 2 2 2 3 5 5 5 5 5 5 5 5 5 5 5 5 5 5
1 1 1 1 1 1 1 1 1 2 2 3 3 3 2 2 2 3 3 2 1 1 1 2 1 2 2 2 3 4 3 5 5 4 4 4 4 4 4 4 4 4 4
1 0 1 1 1 1 1 1 1 2 1 2 2 3 2 2 2 2 2 2 3 2 2 2 2 2 2 2 3 3 3 4 4 4 4 4 4 4 4 4 3 3 3
0 0 0 1 1 1 1 1 1 1 1 1 1 1 2 1 1 1 1 2 3 3 3 2 2 1 1 2 3 3 3 4 5 5 5 5 5 4 4 4 3 3 3
1 1 1 1 1 1 1 1 1 1 1 2 2 2 2 2 1 1 1 1 2 3 3 2 2 1 2 2 1 2 2 3 3 4 5 4 4 4 4 3 4 4 4
2 2 1 1 1 1 1 2 2 2 2 3 3 2 3 2 2 1 1 2 2 3 3 3 2 1 2 2 2 2 2 2 2 4 5 5 4 4 4 4 4 4 4
2 1 1 1 2 1 2 2 2 2 2 3 3 3 3 2 3 2 2 2 2 2 2 3 2 1 1 1 1 1 2 1 2 3 4 4 5 5 5 5 5 4 4
2 2 2 2 2 2 2 1 1 2 2 3 3 3 3 4 4 3 3 3 2 2 2 2 2 1 1 1 1 1 1 1 2 2 2 2 3 4 4 5 5 5 5
3 2 2 2 2 2 2 1 2 2 2 3 3 3 4 4 5 4 3 3 3 2 2 2 2 2 2 1 2 1 2 2 2 2 2 2 2 2 2 4 5 5 5
2 2 2 2 2 2 2 3 3 2 2 3 3 3 4 4 4 5 5 5 5 4 4 3 3 3 4 3 2 2 2 1 2 2 2 2 2 2 3 3 4 5 5
2 2 2 2 3 3 3 3 4 3 2 3 3 3 3 3 3 3 4 4 5 6 6 5 5 5 5 4 4 3 3 3 3 2 2 2 2 3 3 3 5 5 6
2 2 2 3 3 4 3 3 4 3 3 3 4 4 4 4 3 3 3 3 4 4 5 5 6 6 6 5 5 5 4 3 2 2 3 3 2 3 2 2 4 5 6
2 2 2 3 3 4 4 3 2 2 3 4 4 4 4 4 5 4 3 3 4 4 4 5 6 6 6 6 5 3 3 3 3 3 3 3 2 2 2 2 3 5 5
2 2 2 2 3 3 4 4 3 2 3 4 3 4 6 6 5 4 4 4 5 5 3 3 3 4 4 4 6 6 5 4 3 3 3 3 2 1 1 1 1 2 2
Wind_Direction
208 218 230 228 234 220 216 219 221 224 218 218 211 202 213 220 227 235 240 233 230 226 229 226 221 219 213 211 210 210 206 208 206 199 195 197 199 200 196 196 201 201 198
203 205 226 232 231 222 217 211 222 223 223 209 221 217 221 224 224 229 238 244 245 241 238 228 221 219 215 213 208 208 205 206 207 197 191 192 196 200 200 200 200 198 199
203 202 212 234 241 226 214 209 229 220 225 212 226 228 223 227 225 235 244 247 254 250 243 226 222 222 221 217 212 212 205 203 201 196 192 188 188 196 198 197 199 200 201
201 196 204 230 231 207 191 197 220 221 232 229 238 241 234 230 234 242 247 244 246 250 244 231 227 224 220 218 215 213 209 198 195 196 191 190 193 196 199 203 204 204 204
198 191 201 216 200 180 190 210 199 203 220 232 235 237 237 237 241 246 246 242 238 240 244 237 231 227 223 223 218 213 210 199 195 196 193 197 202 203 201 202 205 210 211
192 189 201 204 184 171 179 182 183 198 208 207 239 262 258 247 240 242 241 240 236 235 236 238 237 232 224 225 222 215 213 206 199 200 198 202 205 204 202 205 209 216 219
186 181 190 188 181 183 192 176 163 166 211 161 126 337 306 269 246 243 237 237 241 236 231 232 231 230 227 219 213 211 214 207 200 199 199 203 206 209 210 214 217 222 225
190 186 182 186 183 176 176 170 158 152 178 154 148 110 340 337 328 289 241 230 242 238 238 235 223 218 219 216 205 207 214 213 208 204 201 203 209 214 217 221 224 226 227
201 190 188 186 180 176 187 193 177 170 185 190 173 162 170 242 310 320 296 262 252 235 239 230 223 219 214 209 210 206 208 212 214 208 203 206 210 216 219 223 228 229 231
224 198 192 186 186 186 192 205 184 179 176 196 193 189 198 183 207 302 320 306 272 247 248 234 224 221 213 210 208 205 206 208 212 213 211 213 214 219 225 229 232 234 231
307 244 180 173 183 193 202 201 183 179 184 196 195 180 176 204 217 211 273 298 294 257 245 237 223 217 209 208 212 211 205 207 210 215 219 223 224 224 229 236 237 237 232
338 322 203 184 191 196 203 204 197 191 205 207 205 197 195 196 202 201 226 251 260 261 242 232 225 223 216 213 218 214 208 209 214 219 223 229 231 231 230 238 239 241 236
278 285 247 200 212 220 209 191 184 209 211 213 214 219 218 222 202 187 203 231 243 253 238 230 223 221 221 213 222 218 212 213 217 220 224 229 230 233 235 233 239 241 245
238 245 200 215 240 230 211 183 188 215 213 221 228 224 226 234 216 202 194 183 210 235 224 239 225 216 218 211 221 217 216 215 218 218 224 227 227 229 234 230 233 241 249
227 215 169 218 245 224 203 171 211 230 217 227 232 231 236 242 229 224 205 189 183 208 243 225 222 216 210 205 208 204 210 214 217 216 221 221 221 226 230 229 226 236 246
246 228 176 212 237 238 214 187 222 234 214 247 239 227 241 253 242 215 201 197 194 195 224 232 222 226 222 227 198 200 210 218 219 221 221 217 217 219 224 223 224 232 232
208 215 219 221 236 240 235 214 242 226 221 246 247 226 241 236 229 227 196 192 199 192 215 241 216 214 198 217 206 207 211 212 220 221 218 210 209 209 207 215 225 228 229
215 213 213 220 242 254 240 225 238 240 232 241 249 241 247 235 229 225 206 216 212 204 202 232 229 208 214 218 210 216 223 218 223 224 216 208 204 203 205 213 221 225 228
216 220 214 231 245 245 240 239 234 242 243 243 242 237 240 227 233 229 222 224 225 216 207 215 239 218 224 214 193 236 231 238 240 224 210 211 210 207 209 215 220 223 224
215 230 234 240 244 240 237 236 240 248 254 260 257 244 237 223 223 220 221 224 220 213 212 216 236 239 233 225 190 216 247 234 249 252 233 220 215 215 218 218 219 220 222
223 223 226 242 245 233 230 217 223 229 244 260 268 261 249 238 227 219 219 216 208 208 209 216 233 235 234 215 225 213 235 255 253 230 222 226 216 221 226 227 224 222 222
229 221 224 230 240 249 252 225 216 223 234 244 262 273 265 249 249 240 233 217 205 204 209 216 232 238 242 229 217 213 221 229 254 207 202 238 214 234 236 230 223 219 222
228 228 236 239 251 262 263 250 237 228 237 244 249 260 267 268 252 245 243 235 234 230 215 213 227 236 238 225 209 219 219 225 238 216 194 239 225 240 243 238 224 223 224
229 234 241 243 251 266 267 252 244 233 243 253 252 250 256 269 260 238 237 242 246 247 238 226 227 234 235 228 214 216 217 225 249 227 196 225 226 238 252 241 223 219 225
244 242 245 241 250 269 265 253 243 248 259 264 260 256 255 261 264 246 231 242 256 261 254 241 239 240 239 230 209 195 198 205 241 234 196 211 224 240 247 245 231 222 228
253 253 261 255 255 270 277 262 241 249 265 271 270 262 254 256 259 240 226 235 252 259 259 266 260 262 251 239 210 205 205 206 219 231 189 190 205 197 246 240 248 246 231